Regional Weather Roundup
Issued by NWS

Home | Current Version | Previous Version | Text Only | Print | Product List | Glossary Off
Versions: 1 2 3 4 5 6 7 8 9 10 11 12 13 14 15 16 17 18 19 20 21 22 23 24 25 26 27 28 29 30 31 32 33 34 35 36 37 38 39 40 41 42 43 44 45 46 47 48 49 50

000
ASUS44 KMEG 031600
RWRTN
TENNESSEE HOURLY STATE WEATHER ROUNDUP
NATIONAL WEATHER SERVICE MEMPHIS TN
1000 AM CST TUE MAR 03 2015

TNZ002-004-019-021-049-052-054-088>092-031700-
WEST TENNESSEE

CITY           SKY/WX    TMP DP  RH WIND       PRES   REMARKS
MEMPHIS INTL   DRZL/FOG  52  50  93 SW12      30.06F VSB 1/2
NWS MEMPHIS      N/A     51 N/A N/A MISG        N/A
JACKSON        CLOUDY    53  50  89 S13       30.06F
DYERSBURG      CLOUDY    48  37  66 S5        30.05F
UNION CITY     CLOUDY    46  46 100 S9        30.00S
PARIS          CLOUDY    46  46 100 S13       30.03F
LEXINGTON      CLOUDY    52  52 100 S10       30.06F
SAVANNAH       CLOUDY    52  52 100 S7        30.09F
$$

TNZ008-025-027-028-033-062-065-066-031700-
NORTH MIDDLE TENNESSEE

CITY           SKY/WX    TMP DP  RH WIND       PRES   REMARKS
NASHVILLE      CLOUDY    56  52  86 S14G21    30.08F
CLARKSVILLE    CLOUDY    54  51  90 S17       30.02F
CROSSVILLE     CLOUDY    51  49  92 S8G17     30.13F FOG
$$

TNZ061-075-076-078-094-096-097-031700-
SOUTH MIDDLE TENNESSEE

CITY           SKY/WX    TMP DP  RH WIND       PRES   REMARKS
FAYETTEVILLE   CLOUDY    48  48 100 S9          N/A  VSB 1/4
TULLAHOMA      CLOUDY    52  52 100 S8        30.14F
WINCHESTER     CLOUDY    52  48  87 SE13      30.15F
COLUMBIA       CLOUDY   N/A N/A N/A S8        30.07F
SHELBYVILLE    CLOUDY    54  54 100 S8        30.12F
$$

TNZ017-018-042-046-047-031700-
NORTHEAST TENNESSEE

CITY           SKY/WX    TMP DP  RH WIND       PRES   REMARKS
TRI CITIES     CLOUDY    46  34  62 CALM      30.18F
ELIZABETHTON   CLOUDY    48  43  81 E7        30.18F
$$

TNZ012-013-036-069-073-074-031700-
CENTRAL EAST TENNESSEE

CITY           SKY/WX    TMP DP  RH WIND       PRES   REMARKS
KNOXVILLE      CLOUDY    45  41  86 CALM      30.18
OAK RIDGE      LGT RAIN  43  41  93 S3        30.20F FOG
GATLINBURG     CLOUDY    46  39  76 CALM      30.16F
$$

TNZ083-085-099-031700-
SOUTHEAST TENNESSEE

CITY           SKY/WX    TMP DP  RH WIND       PRES   REMARKS
CHATTANOOGA    DRIZZLE   49  47  93 S6        30.21F FOG
$$

SKY/WX REPORTED AS FAIR MEANS FEW OR NO CLOUDS BELOW
12 THOUSAND FEET.



USA.gov is the U.S. government's official web portal to all federal, state and local government web resources and services.